Previsão horária em Aba

Hoje, 18 Abril, Domingo

Tempo Temperatura Precipitação Vento Pressão Humidade
00:00 +6°C° 0 mm 2 m/s 753 mmHg 73%
01:00 +6°C° 0 mm 2 m/s 753 mmHg 75%
02:00 +6°C° 0 mm 2 m/s 753 mmHg 76%
03:00 +6°C° 0 mm 2 m/s 753 mmHg 76%
04:00 +6°C° 0 mm 1 m/s 753 mmHg 76%
05:00 +7°C° 0 mm 1 m/s 753 mmHg 77%
06:00 +7°C° 0 mm 1 m/s 753 mmHg 77%
07:00 +8°C° 0 mm 1 m/s 753 mmHg 77%
08:00 +8°C° 0.1 mm 1 m/s 753 mmHg 76%
09:00 +8°C° 0.1 mm 1 m/s 753 mmHg 75%
10:00 +9°C° 0.1 mm 1 m/s 753 mmHg 74%
11:00 +9°C° 0.1 mm 1 m/s 753 mmHg 73%
12:00 +10°C° 0.1 mm 1 m/s 753 mmHg 73%
13:00 +10°C° 0.1 mm 1 m/s 753 mmHg 73%
14:00 +10°C° 0.3 mm 1 m/s 753 mmHg 77%
15:00 +9°C° 0.3 mm 1 m/s 753 mmHg 81%
16:00 +9°C° 0.3 mm 1 m/s 753 mmHg 85%
17:00 +9°C° 0.3 mm 1 m/s 753 mmHg 87%
18:00 +8°C° 0.3 mm 1 m/s 753 mmHg 90%
19:00 +8°C° 0.3 mm 1 m/s 753 mmHg 93%
20:00 +8°C° 0.3 mm 1 m/s 753 mmHg 94%
21:00 +8°C° 0.3 mm 1 m/s 753 mmHg 94%
22:00 +7°C° 0.3 mm 1 m/s 753 mmHg 95%
23:00 +7°C° 0.4 mm 1 m/s 753 mmHg 96%

Amanhã, 19 Abril, Segunda-feira

Tempo Temperatura Precipitação Vento Pressão Humidade
00:00 +7°C° 0.4 mm 1 m/s 753 mmHg 96%
01:00 +7°C° 0.4 mm 1 m/s 753 mmHg 96%
02:00 +7°C° 0.4 mm 1 m/s 753 mmHg 96%
03:00 +7°C° 0.4 mm 1 m/s 752 mmHg 96%
04:00 +7°C° 0.4 mm 1 m/s 752 mmHg 96%
05:00 +7°C° 0.1 mm 1 m/s 752 mmHg 94%
06:00 +7°C° 0.1 mm 1 m/s 752 mmHg 93%
07:00 +7°C° 0.1 mm 1 m/s 752 mmHg 91%
08:00 +8°C° 0.1 mm 1 m/s 752 mmHg 88%
09:00 +7°C° 0.1 mm 2 m/s 752 mmHg 85%
10:00 +7°C° 0.1 mm 2 m/s 752 mmHg 82%
11:00 +8°C° 0.1 mm 2 m/s 752 mmHg 80%
12:00 +8°C° 0.1 mm 2 m/s 752 mmHg 78%
13:00 +10°C° 0.1 mm 1 m/s 752 mmHg 76%
14:00 +10°C° 0.1 mm 1 m/s 752 mmHg 75%
15:00 +10°C° 0.1 mm 1 m/s 751 mmHg 74%
16:00 +10°C° 0.1 mm 1 m/s 751 mmHg 72%
17:00 +10°C° 0 mm 1 m/s 751 mmHg 77%
18:00 +9°C° 0 mm 1 m/s 751 mmHg 81%
19:00 +8°C° 0 mm 1 m/s 751 mmHg 85%
20:00 +7°C° 0 mm 2 m/s 751 mmHg 87%
21:00 +6°C° 0 mm 2 m/s 751 mmHg 88%
22:00 +6°C° 0 mm 2 m/s 751 mmHg 90%
23:00 +6°C° 0 mm 2 m/s 751 mmHg 91%

Depois de amanhã, 20 Abril, Terça-feira

Tempo Temperatura Precipitação Vento Pressão Humidade
00:00 +6°C° 0 mm 2 m/s 751 mmHg 93%
01:00 +6°C° 0 mm 2 m/s 751 mmHg 94%
02:00 +5°C° 0 mm 2 m/s 751 mmHg 94%
03:00 +5°C° 0 mm 2 m/s 751 mmHg 94%
04:00 +5°C° 0 mm 2 m/s 751 mmHg 94%
05:00 +6°C° 0 mm 2 m/s 751 mmHg 92%
06:00 +6°C° 0 mm 2 m/s 751 mmHg 89%
07:00 +7°C° 0 mm 2 m/s 751 mmHg 86%
08:00 +8°C° 0 mm 3 m/s 751 mmHg 81%
09:00 +9°C° 0 mm 3 m/s 751 mmHg 76%
10:00 +10°C° 0 mm 3 m/s 751 mmHg 71%
11:00 +11°C° 0.1 mm 3 m/s 751 mmHg 68%
12:00 +11°C° 0.1 mm 3 m/s 751 mmHg 66%
13:00 +12°C° 0.1 mm 4 m/s 751 mmHg 63%
14:00 +12°C° 0.1 mm 4 m/s 751 mmHg 63%
15:00 +12°C° 0.1 mm 4 m/s 751 mmHg 63%
16:00 +12°C° 0.1 mm 4 m/s 751 mmHg 64%
17:00 +11°C° 0 mm 3 m/s 751 mmHg 70%
18:00 +9°C° 0 mm 3 m/s 751 mmHg 76%
19:00 +8°C° 0 mm 3 m/s 752 mmHg 82%
20:00 +8°C° 0 mm 3 m/s 752 mmHg 82%
21:00 +7°C° 0 mm 3 m/s 752 mmHg 82%
22:00 +7°C° 0 mm 2 m/s 752 mmHg 82%
23:00 +7°C° 0 mm 2 m/s 752 mmHg 84%

21 Abril, Quarta-feira

Tempo Temperatura Precipitação Vento Pressão Humidade
00:00 +6°C° 0 mm 2 m/s 752 mmHg 86%
01:00 +6°C° 0 mm 2 m/s 752 mmHg 87%
02:00 +6°C° 0 mm 2 m/s 752 mmHg 88%
03:00 +6°C° 0 mm 2 m/s 752 mmHg 88%
04:00 +6°C° 0 mm 2 m/s 752 mmHg 89%
05:00 +7°C° 0 mm 2 m/s 753 mmHg 85%
06:00 +8°C° 0 mm 3 m/s 753 mmHg 82%
07:00 +9°C° 0 mm 3 m/s 753 mmHg 78%
08:00 +11°C° 0 mm 3 m/s 753 mmHg 71%
09:00 +12°C° 0 mm 3 m/s 753 mmHg 65%
10:00 +14°C° 0 mm 3 m/s 753 mmHg 58%
11:00 +16°C° 0.2 mm 3 m/s 753 mmHg 54%
12:00 +16°C° 0.2 mm 3 m/s 753 mmHg 50%
13:00 +17°C° 0.2 mm 3 m/s 753 mmHg 46%
14:00 +17°C° 0 mm 3 m/s 752 mmHg 46%
15:00 +17°C° 0 mm 3 m/s 752 mmHg 46%
16:00 +17°C° 0 mm 3 m/s 752 mmHg 45%
17:00 +14°C° 0 mm 3 m/s 752 mmHg 51%
18:00 +14°C° 0 mm 2 m/s 753 mmHg 57%
19:00 +12°C° 0 mm 1 m/s 753 mmHg 63%
20:00 +12°C° 0 mm 1 m/s 753 mmHg 66%
21:00 +11°C° 0 mm 1 m/s 753 mmHg 68%
22:00 +10°C° 0 mm 1 m/s 753 mmHg 71%
23:00 +10°C° 0 mm 1 m/s 754 mmHg 73%

22 Abril, Quinta-feira

Tempo Temperatura Precipitação Vento Pressão Humidade
00:00 +9°C° 0 mm 1 m/s 754 mmHg 76%
01:00 +9°C° 0 mm 1 m/s 754 mmHg 78%
02:00 +9°C° 0 mm 1 m/s 754 mmHg 81%
03:00 +8°C° 0 mm 1 m/s 754 mmHg 84%
04:00 +7°C° 0 mm 2 m/s 754 mmHg 87%
05:00 +8°C° 0 mm 2 m/s 754 mmHg 84%
06:00 +9°C° 0 mm 2 m/s 754 mmHg 81%
07:00 +10°C° 0 mm 2 m/s 754 mmHg 77%
08:00 +13°C° 0 mm 2 m/s 755 mmHg 71%
09:00 +15°C° 0 mm 2 m/s 755 mmHg 65%
10:00 +16°C° 0 mm 1 m/s 755 mmHg 59%
11:00 +17°C° 0.3 mm 2 m/s 755 mmHg 57%
12:00 +17°C° 0.3 mm 2 m/s 754 mmHg 55%
13:00 +18°C° 0.3 mm 2 m/s 754 mmHg 53%
14:00 +17°C° 0.8 mm 3 m/s 754 mmHg 59%
15:00 +16°C° 0.8 mm 3 m/s 754 mmHg 65%
16:00 +14°C° 0.8 mm 4 m/s 754 mmHg 70%
17:00 +12°C° 0.6 mm 4 m/s 755 mmHg 75%
18:00 +11°C° 0.6 mm 4 m/s 755 mmHg 80%
19:00 +8°C° 0.6 mm 4 m/s 755 mmHg 85%
20:00 +9°C° 1.4 mm 3 m/s 755 mmHg 88%
21:00 +9°C° 1.4 mm 3 m/s 756 mmHg 91%
22:00 +8°C° 1.4 mm 2 m/s 756 mmHg 93%
23:00 +8°C° 0 mm 2 m/s 756 mmHg 93%

23 Abril, Sexta-feira

Tempo Temperatura Precipitação Vento Pressão Humidade
00:00 +8°C° 0 mm 2 m/s 756 mmHg 92%
01:00 +8°C° 0 mm 3 m/s 756 mmHg 92%
02:00 +7°C° 0 mm 3 m/s 756 mmHg 89%
03:00 +6°C° 0 mm 4 m/s 757 mmHg 87%
04:00 +5°C° 0 mm 4 m/s 757 mmHg 85%
05:00 +5°C° 0 mm 5 m/s 757 mmHg 81%
06:00 +6°C° 0 mm 5 m/s 758 mmHg 77%
07:00 +6°C° 0 mm 5 m/s 758 mmHg 72%
08:00 +7°C° 0 mm 6 m/s 758 mmHg 67%
09:00 +8°C° 0 mm 6 m/s 758 mmHg 61%
10:00 +10°C° 0 mm 6 m/s 758 mmHg 55%
11:00 +10°C° 0 mm 6 m/s 758 mmHg 52%
12:00 +11°C° 0 mm 6 m/s 758 mmHg 48%
13:00 +13°C° 0 mm 6 m/s 758 mmHg 45%
14:00 +12°C° 0 mm 5 m/s 758 mmHg 45%
15:00 +12°C° 0 mm 5 m/s 757 mmHg 46%
16:00 +12°C° 0 mm 5 m/s 757 mmHg 46%
17:00 +10°C° 0 mm 4 m/s 758 mmHg 52%
18:00 +8°C° 0 mm 4 m/s 758 mmHg 58%
19:00 +7°C° 0 mm 3 m/s 758 mmHg 65%
20:00 +7°C° 0 mm 3 m/s 758 mmHg 67%
21:00 +5°C° 0 mm 3 m/s 758 mmHg 70%
22:00 +4°C° 0 mm 3 m/s 758 mmHg 73%
23:00 +3°C° 0 mm 3 m/s 758 mmHg 75%
Mostrar mais

Necessitamos do seu Consentimento

A Meteoprog e os seus Fornecedores de Serviços podem armazenar e aceder a dados pessoais como cookies, identificadores do dispositivo ou outras tecnologias semelhantes existentes no seu dispositivo e processar estes dados para personalizar conteúdos e anúncios, assim como funcionalidades nas redes sociais e análise de tráfego.

  • Armazenar e/ou aceder a informações no seu dispositivo

    Os cookies, identificadores do dispositivo ou outras informações podem ser armazenados ou acedidos no seu dispositivo, para os fins acima indicados.

  • Anúncios e conteúdos personalizados, medição de anúncios e conteúdos, dados sobre o público-alvo e desenvolvimento de produtos

    Os anúncios e os conteúdos podem ser personalizados com base num perfil. Podem ser adicionados dados adicionais para uma maior personalização dos anúncios e dos conteúdos. A eficácia dos anúncios e dos conteúdos pode ser medida. Podem ser obtidas informações sobre o público que visualizou os anúncios e os conteúdos. Estes dados podem ser usados para desenvolver ou melhorar sistemas, softwares ou a experiência do utilizador.

Ao clicar em "Eu concordo”, permitirá o uso de cookies, identificadores do dispositivo e web beacons mencionados ou outras tecnologias semelhantes. As configurações do navegador do seu dispositivo podem ser alteradas.

Para certos fins, podem ser invocados interesses legítimos ao invés de consentimento. Pode ler mais informação sobre este assunto na nossa Política de Privacidade e Cookies.